Temp
24 23 22 22 22 22 22 23 23 24 24 25 26 25 24 23 24 21 22 23 22 21 21 20 21 21 21 20 20 20 20 20 20 20 20 20 20 20 20 19 19 18 18 18 18 18 18 18 18
24 24 23 23 21 20 21 24 22 23 25 25 25 25 24 22 22 22 22 22 23 22 21 21 21 21 21 20 20 20 20 20 20 20 20 20 20 20 19 19 19 19 18 18 18 18 18 18 18
23 24 24 19 20 20 20 23 23 24 25 24 24 24 23 22 23 24 23 22 22 22 21 21 21 21 20 20 20 20 20 20 20 19 19 19 19 19 19 19 19 19 19 18 18 18 18 18 18
23 23 23 22 21 23 22 23 27 25 24 24 24 23 23 22 24 23 23 22 22 22 21 21 20 20 20 20 20 20 20 20 19 19 19 19 19 19 19 19 19 18 19 18 18 18 18 17 18
23 23 19 20 22 22 23 25 25 25 23 24 23 22 22 22 23 23 22 21 22 22 21 20 20 20 20 20 20 20 20 20 19 19 19 19 19 19 19 19 18 18 18 18 18 18 18 17 17
24 22 19 20 22 25 23 25 23 23 23 24 22 22 22 22 23 23 23 22 21 22 21 20 20 20 20 20 20 20 20 19 19 19 19 19 19 19 19 19 18 18 18 18 18 18 18 18 17
21 19 19 20 22 23 23 23 22 23 23 24 23 21 21 22 22 22 23 21 21 21 21 21 20 20 20 20 20 20 20 19 19 19 19 19 19 19 19 19 19 18 18 18 18 18 18 18 18
24 19 20 21 22 24 24 22 24 23 23 23 24 21 22 22 22 22 21 21 21 21 21 21 20 20 21 20 20 20 20 20 19 19 19 19 19 19 19 19 19 18 18 18 18 18 18 17 17
25 20 21 21 22 24 25 23 24 24 24 23 23 23 23 22 22 21 21 21 21 21 21 20 20 20 20 20 20 20 20 20 20 20 19 19 19 19 19 19 19 19 18 18 18 18 18 18 17
23 20 23 22 24 25 24 24 25 24 23 23 22 23 23 22 22 22 21 21 20 20 20 20 20 21 20 20 20 20 20 20 20 20 20 19 19 18 18 18 18 18 18 18 18 18 18 18 17
23 23 24 26 25 27 25 26 26 24 23 24 22 22 23 22 21 22 21 21 21 20 20 20 20 20 20 20 20 20 20 20 20 20 20 19 19 19 18 18 18 18 19 18 19 18 18 17 17
25 26 27 28 29 27 25 27 25 25 26 27 23 23 22 21 21 21 21 21 21 21 20 20 20 20 20 20 20 20 20 20 20 19 19 19 19 19 18 18 19 18 18 18 18 18 18 18 17
25 27 28 29 29 28 28 26 26 25 26 25 23 22 22 22 21 21 21 21 21 21 21 20 20 20 19 19 19 19 19 19 19 19 19 19 19 19 18 19 19 18 18 18 18 18 18 18 18
27 27 27 27 28 28 27 26 28 24 25 23 22 22 23 23 23 21 20 20 21 20 20 20 20 20 19 19 19 19 19 19 18 18 19 18 18 18 18 18 18 18 18 18 18 18 18 18 18
27 26 24 26 27 26 28 26 26 24 23 22 22 22 23 24 25 24 22 21 21 22 20 20 20 19 19 20 19 19 19 18 18 18 18 18 18 18 18 17 17 17 18 17 18 18 18 18 18
24 23 23 26 26 27 27 24 22 23 22 21 22 22 24 25 24 23 23 22 21 21 21 20 20 21 20 20 19 19 18 19 19 18 18 18 18 17 17 17 17 17 17 17 17 18 18 17 17
20 22 23 23 26 26 25 22 22 23 21 20 22 23 24 25 21 21 24 23 23 21 21 21 20 21 20 20 19 19 19 18 18 18 18 18 18 18 18 17 17 17 17 17 17 17 18 18 17
22 23 23 23 26 26 24 21 21 21 20 20 22 23 24 22 21 21 22 24 23 22 21 21 21 21 21 20 19 18 18 18 18 18 18 17 17 17 17 17 17 17 16 16 16 17 17 17 17
24 23 23 24 25 26 24 22 22 20 20 19 21 23 23 19 18 20 22 23 23 21 21 20 21 21 20 20 19 18 18 18 18 17 17 17 17 17 17 17 17 16 16 17 16 17 17 17 17
23 22 22 23 25 25 23 20 21 18 19 19 21 21 19 20 18 19 22 22 24 20 21 20 20 20 20 19 19 18 17 17 17 17 17 17 16 16 16 17 17 16 16 16 16 16 17 17 17
23 22 23 24 25 24 24 20 19 19 18 19 20 20 19 22 21 19 21 22 22 20 19 19 19 20 19 18 18 18 17 17 17 17 17 17 16 16 17 16 16 16 16 16 16 16 16 17 17
22 23 25 25 25 24 24 22 20 19 17 18 19 19 20 21 20 20 20 20 20 19 18 19 19 19 19 19 17 17 17 16 17 16 16 16 16 16 16 16 16 16 16 16 16 16 16 16 17
23 25 25 26 23 23 24 21 21 18 19 17 19 20 20 21 20 20 21 19 18 19 18 18 19 19 19 18 17 17 16 16 16 16 16 16 16 16 16 16 15 16 16 15 16 16 16 16 16
26 26 21 18 18 21 22 22 21 19 21 19 20 21 22 22 20 20 20 20 20 20 19 19 19 19 19 17 17 17 16 16 16 15 15 15 15 16 16 15 15 16 15 15 15 16 15 16 16
23 20 19 21 19 20 21 21 20 21 21 22 21 23 22 22 20 20 19 21 21 21 20 19 19 19 18 17 17 17 16 16 15 15 16 16 15 15 15 16 16 16 16 15 15 15 15 15 16
23 21 19 21 19 21 20 22 22 21 21 21 22 21 21 20 20 20 21 21 20 20 19 19 19 18 18 17 17 17 16 16 15 16 16 16 16 15 15 15 15 15 15 15 15 15 15 15 16
25 23 21 18 18 20 19 21 22 21 19 18 18 18 21 19 22 24 22 21 21 21 20 19 19 18 18 17 17 17 16 16 16 16 16 16 16 16 16 15 15 15 15 15 15 15 15 16 16
24 22 22 17 21 22 19 21 19 19 18 17 17 17 20 19 19 22 22 22 21 20 19 18 18 18 17 17 17 17 17 16 16 16 16 16 16 16 16 16 16 15 15 15 15 15 15 16 16
24 23 18 17 17 19 19 19 18 18 17 17 17 20 23 22 18 22 22 21 20 19 19 19 19 18 18 17 16 16 16 16 16 16 16 16 15 15 16 16 16 15 15 15 15 15 15 16 16
25 23 20 19 22 17 17 19 18 16 16 18 17 20 22 20 18 21 20 20 20 19 19 19 19 18 17 17 16 16 16 16 15 15 15 15 15 15 15 15 16 15 15 15 15 15 15 16 16
Height
1493 1489 1490 1491 1505 1513 1524 1519 1508 1501 1497 1495 1494 1495 1496 1497 1498 1511 1498 1503 1509 1513 1517 1521 1525 1528 1531 1533 1536 1537 1539 1541 1543 1544 1545 1546 1547 1548 1549 1550 1551 1553 1554 1556 1557 1557 1557 1557 1557
1494 1493 1494 1494 1518 1538 1533 1513 1510 1504 1503 1501 1498 1498 1499 1501 1499 1499 1502 1507 1512 1515 1519 1522 1526 1528 1531 1534 1536 1538 1540 1542 1543 1545 1546 1547 1548 1550 1550 1551 1553 1554 1554 1556 1557 1558 1558 1558 1558
1495 1494 1494 1505 1522 1537 1534 1509 1503 1501 1502 1505 1502 1503 1503 1504 1503 1504 1506 1509 1514 1518 1522 1524 1527 1530 1532 1534 1537 1540 1541 1543 1544 1546 1547 1548 1549 1550 1551 1552 1553 1555 1555 1556 1557 1558 1560 1558 1559
1497 1497 1499 1509 1523 1518 1517 1501 1487 1499 1503 1505 1502 1503 1505 1505 1506 1508 1510 1513 1515 1519 1524 1527 1530 1532 1535 1536 1538 1540 1542 1543 1545 1546 1548 1549 1550 1551 1552 1553 1553 1554 1555 1557 1558 1558 1559 1559 1561
1499 1498 1511 1519 1522 1517 1512 1501 1497 1499 1506 1507 1505 1506 1505 1507 1509 1512 1514 1517 1519 1521 1524 1528 1531 1534 1535 1537 1539 1541 1543 1544 1546 1547 1547 1549 1551 1552 1552 1553 1554 1554 1554 1556 1557 1560 1559 1560 1562
1498 1500 1522 1532 1522 1512 1509 1502 1502 1501 1505 1508 1508 1506 1510 1510 1512 1514 1519 1521 1524 1524 1525 1529 1532 1535 1537 1538 1540 1542 1544 1545 1546 1547 1548 1549 1551 1552 1552 1553 1554 1555 1554 1556 1557 1558 1559 1561 1563
1500 1506 1525 1525 1518 1513 1505 1502 1504 1505 1506 1509 1507 1510 1514 1514 1516 1517 1521 1523 1525 1526 1528 1531 1534 1537 1538 1538 1540 1542 1543 1544 1545 1547 1548 1549 1550 1552 1553 1553 1553 1554 1556 1556 1556 1557 1560 1561 1563
1499 1506 1522 1522 1522 1514 1504 1506 1504 1506 1508 1509 1506 1507 1511 1511 1515 1518 1522 1525 1526 1530 1531 1532 1535 1536 1537 1538 1540 1541 1542 1544 1545 1546 1548 1549 1550 1551 1552 1553 1553 1554 1555 1557 1557 1557 1560 1560 1563
1500 1511 1519 1523 1517 1505 1502 1507 1504 1505 1506 1507 1508 1505 1505 1511 1515 1519 1522 1524 1526 1529 1532 1532 1536 1537 1538 1539 1539 1540 1541 1543 1545 1546 1547 1549 1550 1551 1552 1553 1553 1554 1555 1555 1557 1558 1559 1562 1562
1502 1514 1507 1502 1500 1499 1499 1503 1499 1502 1504 1507 1506 1504 1507 1509 1512 1518 1522 1524 1526 1530 1532 1534 1536 1536 1537 1538 1538 1539 1540 1542 1544 1545 1546 1548 1550 1551 1552 1553 1553 1553 1554 1555 1555 1557 1559 1560 1561
1502 1507 1498 1493 1495 1496 1498 1502 1501 1501 1501 1502 1503 1503 1508 1513 1518 1519 1518 1521 1526 1529 1531 1532 1533 1534 1536 1536 1537 1538 1540 1541 1543 1543 1545 1546 1548 1549 1551 1551 1552 1553 1553 1554 1555 1555 1558 1559 1560
1504 1497 1496 1491 1485 1492 1494 1496 1494 1495 1498 1497 1506 1506 1509 1515 1518 1520 1523 1521 1524 1528 1530 1531 1531 1531 1535 1537 1538 1538 1537 1539 1541 1543 1545 1544 1547 1548 1549 1550 1551 1552 1553 1553 1554 1555 1556 1558 1559
1500 1498 1494 1493 1486 1485 1488 1487 1492 1494 1494 1497 1503 1507 1513 1515 1519 1520 1522 1523 1525 1526 1529 1529 1529 1529 1530 1533 1535 1536 1536 1537 1539 1541 1542 1543 1545 1547 1548 1548 1550 1551 1552 1552 1552 1554 1554 1555 1558
1498 1493 1489 1489 1487 1487 1486 1489 1488 1497 1495 1496 1502 1506 1504 1501 1504 1517 1519 1522 1519 1524 1527 1527 1528 1528 1528 1531 1533 1534 1535 1536 1537 1538 1540 1541 1544 1545 1546 1547 1548 1549 1551 1551 1551 1552 1553 1554 1556
1495 1495 1488 1486 1487 1487 1486 1493 1492 1494 1496 1496 1502 1506 1509 1508 1499 1510 1517 1520 1525 1523 1528 1528 1527 1529 1530 1531 1531 1532 1533 1534 1535 1536 1537 1539 1540 1541 1543 1544 1545 1547 1548 1549 1549 1550 1551 1552 1554
1501 1501 1509 1488 1487 1484 1485 1508 1497 1493 1492 1497 1501 1506 1508 1507 1505 1511 1517 1517 1521 1527 1526 1531 1529 1527 1530 1532 1531 1530 1531 1531 1532 1534 1535 1536 1537 1538 1540 1540 1541 1543 1545 1546 1547 1547 1549 1550 1551
1511 1518 1509 1500 1487 1487 1492 1505 1494 1494 1492 1495 1500 1500 1501 1502 1506 1498 1506 1512 1516 1521 1529 1528 1530 1528 1528 1530 1532 1531 1530 1529 1530 1531 1531 1532 1532 1533 1535 1536 1538 1540 1541 1543 1545 1546 1547 1549 1550
1518 1513 1506 1508 1492 1489 1497 1502 1499 1498 1499 1499 1500 1500 1498 1503 1500 1499 1503 1503 1512 1518 1525 1528 1528 1528 1527 1529 1530 1530 1529 1528 1527 1528 1528 1529 1528 1529 1530 1532 1534 1536 1537 1540 1541 1543 1545 1547 1548
1504 1508 1511 1497 1490 1491 1497 1499 1494 1495 1498 1499 1501 1500 1499 1502 1502 1502 1506 1506 1507 1514 1523 1527 1525 1524 1527 1528 1530 1529 1528 1525 1523 1523 1523 1523 1524 1524 1525 1527 1529 1531 1533 1535 1537 1540 1543 1545 1546
1507 1512 1509 1495 1485 1489 1495 1504 1495 1495 1494 1493 1496 1498 1500 1501 1504 1506 1507 1505 1501 1513 1517 1521 1525 1524 1526 1528 1529 1529 1525 1521 1520 1519 1518 1518 1518 1519 1520 1521 1524 1526 1528 1530 1533 1535 1538 1542 1544
1505 1511 1506 1504 1491 1489 1492 1510 1505 1496 1496 1499 1499 1500 1501 1500 1504 1510 1510 1510 1509 1512 1518 1515 1520 1524 1526 1526 1526 1525 1522 1518 1515 1514 1513 1514 1513 1513 1514 1516 1517 1520 1523 1525 1528 1531 1534 1538 1540
1511 1488 1492 1495 1499 1514 1493 1527 1506 1499 1500 1501 1496 1501 1501 1499 1500 1505 1506 1509 1512 1515 1509 1517 1519 1524 1522 1522 1524 1522 1519 1516 1512 1510 1510 1510 1508 1508 1509 1511 1513 1516 1518 1521 1524 1527 1530 1534 1537
1497 1482 1487 1488 1499 1503 1503 1520 1509 1503 1506 1503 1495 1498 1497 1499 1498 1502 1506 1509 1513 1511 1516 1518 1522 1523 1522 1521 1521 1518 1516 1513 1510 1508 1507 1506 1504 1503 1505 1506 1508 1510 1513 1516 1520 1523 1526 1530 1533
1481 1485 1496 1502 1512 1528 1508 1512 1513 1511 1497 1493 1486 1487 1495 1498 1499 1502 1505 1506 1509 1510 1513 1518 1520 1521 1521 1521 1521 1516 1514 1511 1509 1506 1504 1503 1500 1499 1500 1501 1503 1505 1508 1512 1516 1519 1522 1526 1528
1485 1503 1531 1529 1538 1536 1508 1512 1507 1495 1491 1490 1485 1485 1494 1501 1503 1502 1506 1506 1508 1509 1510 1515 1518 1520 1520 1520 1518 1516 1514 1512 1509 1505 1503 1502 1499 1497 1497 1497 1499 1502 1505 1508 1512 1514 1518 1522 1525
1487 1496 1527 1538 1545 1531 1510 1515 1502 1490 1489 1486 1487 1495 1498 1505 1505 1505 1505 1508 1509 1511 1514 1516 1517 1516 1516 1517 1517 1516 1516 1513 1510 1505 1503 1502 1500 1497 1496 1496 1498 1500 1502 1505 1508 1511 1515 1518 1522
1483 1495 1487 1521 1526 1530 1522 1503 1492 1491 1493 1492 1493 1497 1493 1516 1504 1495 1503 1508 1513 1514 1515 1518 1516 1514 1515 1516 1516 1517 1517 1514 1512 1508 1506 1504 1500 1497 1496 1496 1496 1498 1500 1503 1505 1508 1512 1515 1519
1472 1475 1500 1515 1530 1532 1526 1512 1513 1501 1498 1498 1496 1493 1494 1505 1503 1503 1503 1504 1510 1511 1515 1515 1515 1515 1516 1518 1517 1517 1517 1515 1513 1511 1508 1505 1502 1498 1495 1495 1496 1498 1499 1501 1503 1506 1510 1513 1515
1477 1483 1496 1503 1515 1530 1536 1522 1485 1487 1488 1489 1488 1481 1479 1479 1499 1498 1501 1503 1510 1513 1513 1511 1511 1516 1516 1517 1518 1517 1517 1516 1515 1513 1510 1507 1505 1501 1498 1496 1496 1497 1498 1499 1501 1504 1508 1510 1512
1464 1473 1483 1509 1508 1518 1520 1511 1479 1476 1477 1480 1480 1479 1482 1488 1495 1496 1500 1498 1509 1511 1511 1513 1514 1513 1515 1516 1517 1518 1517 1516 1515 1514 1512 1510 1508 1504 1501 1498 1498 1497 1498 1500 1502 1505 1507 1508 1509
Wind_Speed
14 12 6 6 6 6 7 7 8 6 5 4 7 2 4 4 1 3 11 28 27 31 30 28 27 26 25 25 22 20 20 18 17 17 16 15 15 15 14 13 13 12 12 11 10 9 7 6 7
12 1 4 5 6 5 3 6 7 4 7 15 15 13 8 5 4 12 29 26 26 29 30 29 27 26 26 23 22 21 19 18 18 17 16 15 15 15 14 12 12 11 12 12 11 10 8 7 9
6 2 4 5 4 4 4 5 7 5 5 12 2 4 2 1 4 21 26 20 27 27 29 29 27 25 25 23 21 20 19 17 16 16 15 15 14 13 13 13 11 10 10 11 11 10 8 9 10
3 1 5 4 6 1 6 11 12 5 5 2 7 1 4 3 15 17 25 22 27 27 28 27 26 24 22 21 20 19 18 17 15 14 14 14 13 12 11 10 10 10 9 9 10 10 9 10 10
3 2 4 5 4 4 6 19 7 3 1 2 2 1 4 9 13 17 20 24 26 26 27 27 25 24 21 19 18 17 17 15 14 13 13 13 12 12 11 9 9 9 9 8 8 9 10 11 11
2 3 5 3 2 4 6 22 10 3 4 3 6 4 4 8 12 18 16 20 23 23 25 27 25 22 20 18 17 17 16 15 14 13 12 12 11 10 9 8 7 6 7 8 7 8 10 11 11
5 3 4 4 2 4 5 13 6 3 8 2 13 4 6 13 17 18 15 17 17 21 22 24 23 21 18 18 17 16 16 15 14 12 12 12 11 10 9 8 7 5 5 6 7 8 9 13 12
3 4 6 1 3 4 3 9 4 6 4 2 9 5 7 21 22 19 14 15 18 20 21 22 23 21 19 18 17 16 15 14 14 14 12 12 11 11 10 9 7 7 6 5 6 7 7 12 14
1 4 1 8 6 5 8 5 6 7 10 5 6 4 18 25 24 24 21 17 20 20 19 19 21 21 20 19 17 16 15 15 15 14 13 12 10 10 9 8 7 5 5 6 5 6 6 9 13
4 2 6 7 4 4 12 12 16 6 6 7 10 9 22 24 26 26 24 21 22 19 17 15 17 19 21 21 19 18 17 17 16 15 14 13 11 10 9 8 7 6 6 6 7 7 8 9 10
3 3 3 8 17 12 14 17 17 9 4 11 18 26 26 23 25 24 25 21 20 18 17 16 16 19 21 21 20 19 18 17 16 16 15 13 13 13 11 9 7 7 7 6 7 8 7 9 9
2 7 8 12 27 10 8 10 11 19 5 10 26 30 28 23 23 22 21 21 20 18 14 13 12 15 17 18 18 18 18 17 16 16 16 15 16 14 13 10 8 8 8 8 8 9 9 9 10
4 3 11 14 12 4 18 15 8 20 1 23 31 29 25 21 16 17 18 18 18 17 16 13 14 14 14 15 16 17 17 17 17 17 18 17 17 16 15 10 9 8 10 9 10 10 11 10 10
6 14 18 8 9 1 4 3 4 7 19 31 32 29 33 30 21 16 19 22 21 19 19 15 14 14 14 14 14 15 14 15 18 19 19 17 18 18 17 13 13 12 12 13 11 10 10 9 12
9 7 9 7 4 6 7 5 3 22 29 33 32 31 28 24 23 18 17 19 19 14 17 18 14 14 13 11 11 14 14 13 17 17 18 19 20 19 21 20 20 18 15 16 14 12 13 12 13
5 3 4 2 1 3 2 4 2 29 34 29 28 26 20 17 12 16 17 21 20 18 17 18 18 12 10 11 11 12 14 13 15 15 17 17 14 18 21 21 19 18 17 18 15 13 12 14 14
4 5 3 8 5 1 7 5 8 25 29 24 27 25 22 16 10 15 24 22 19 22 21 20 19 14 12 11 14 12 13 14 14 16 17 17 16 17 21 20 17 15 17 18 20 16 14 14 13
4 4 3 5 2 2 7 2 2 14 17 20 25 19 18 9 18 13 19 21 16 23 24 24 19 17 14 15 17 15 16 16 16 17 19 20 20 20 20 20 19 16 16 19 21 20 17 15 14
4 5 6 12 4 3 6 8 15 17 15 18 20 19 17 10 11 5 12 16 18 31 25 23 21 16 15 15 17 20 20 17 18 19 19 20 21 23 22 21 22 21 18 18 20 23 19 16 16
5 5 11 10 2 4 4 4 7 10 8 25 30 18 16 18 13 11 13 14 12 30 23 19 21 15 13 16 19 21 21 21 21 23 23 23 23 23 23 25 24 22 21 20 21 22 23 21 20
5 5 6 9 4 2 2 4 4 5 5 9 24 11 16 18 22 19 25 8 15 26 13 19 19 16 16 16 19 21 21 22 22 22 22 21 23 24 25 22 24 22 21 20 23 24 24 25 24
6 8 9 7 2 2 2 3 6 5 4 8 23 17 18 19 23 23 33 19 10 25 25 16 13 17 12 15 18 18 19 21 19 20 20 20 23 22 21 22 23 23 24 22 22 24 26 25 22
11 7 4 4 3 3 2 3 3 4 4 7 17 19 27 22 23 27 32 28 13 16 17 18 16 14 13 13 14 13 13 14 16 18 17 16 17 19 20 21 21 21 26 25 22 23 25 26 25
10 3 6 5 3 2 5 3 2 4 5 5 17 28 26 19 21 19 22 23 17 14 18 16 13 14 10 10 7 8 11 11 13 11 9 11 13 15 16 17 19 17 21 24 23 23 25 24 24
5 6 3 4 4 5 2 2 7 5 4 3 14 26 22 18 18 19 16 14 16 18 14 15 14 10 8 3 5 7 8 8 7 7 7 8 6 6 7 11 13 15 15 21 22 22 25 25 24
5 8 6 6 4 4 2 3 3 2 8 4 8 9 4 12 12 9 9 15 15 15 15 16 12 8 4 2 2 4 7 10 8 9 8 7 7 4 4 8 11 13 13 17 20 21 24 24 24
3 4 4 7 3 2 3 5 4 2 8 19 23 26 27 19 9 7 13 14 15 13 14 11 8 6 6 3 2 4 5 9 11 10 11 11 8 5 3 2 7 9 12 14 16 17 21 22 24
6 5 4 3 4 3 4 3 5 6 5 5 18 31 29 18 21 14 14 15 18 16 14 9 5 5 5 4 3 5 4 8 11 11 12 12 11 9 6 3 3 7 9 12 13 15 16 17 19
2 1 6 6 4 6 3 6 6 11 12 14 20 32 25 27 26 23 24 23 20 18 12 10 9 7 6 5 4 5 5 4 6 8 10 12 11 10 9 8 3 3 6 9 10 13 14 14 16
4 6 6 5 4 1 4 6 2 9 12 17 16 27 25 19 25 29 28 26 22 17 13 12 5 7 7 5 5 5 2 4 6 6 9 9 9 10 9 9 8 5 5 6 6 9 11 11 12
Wind_Direction
18 6 13 31 57 60 34 2 324 334 27 42 141 141 147 35 165 215 153 161 171 167 165 162 163 161 161 160 159 155 150 148 144 142 140 143 144 142 143 148 155 166 165 165 159 149 138 136 142
30 305 29 46 83 68 352 329 347 311 42 91 81 79 42 359 96 133 154 162 173 169 168 166 166 165 166 163 163 159 156 151 148 147 145 144 146 145 142 143 146 153 157 163 161 158 140 134 141
349 20 10 97 86 123 177 260 247 254 335 313 89 92 85 128 164 151 164 164 172 172 173 170 168 167 169 166 165 164 159 156 154 153 152 148 149 149 148 146 147 153 156 161 162 162 143 142 148
314 123 71 83 149 48 168 248 236 102 359 290 116 62 96 189 158 164 170 170 174 174 175 174 172 172 169 168 171 169 165 161 160 158 157 154 153 153 153 155 153 154 158 166 172 168 158 149 155
336 75 53 68 34 123 233 226 323 343 22 352 167 201 27 124 179 170 175 177 177 175 176 176 178 178 172 172 174 176 172 165 163 163 161 159 158 161 161 158 160 159 158 170 183 182 167 158 164
35 77 57 74 225 175 225 227 276 304 296 316 116 87 46 130 158 156 163 174 183 182 178 178 180 181 177 176 177 179 178 174 171 169 166 165 165 164 164 163 164 165 167 170 177 177 170 167 174
102 67 103 181 315 278 228 208 232 337 265 314 140 82 138 148 152 149 160 174 186 187 180 182 182 184 182 180 181 181 183 182 179 177 173 169 170 170 169 171 166 166 181 183 177 177 171 170 182
82 92 119 312 210 268 284 189 302 204 285 303 176 156 167 171 168 166 159 173 173 179 183 185 186 188 188 187 184 186 190 191 189 186 181 181 179 179 174 176 180 176 176 198 192 181 179 179 187
56 56 359 165 191 232 188 203 191 184 251 209 223 198 170 164 172 171 167 180 182 181 184 191 193 193 195 197 193 195 198 200 200 195 191 192 190 188 183 178 183 197 193 184 195 198 185 191 192
93 113 217 177 207 216 177 194 188 197 205 203 204 162 168 169 174 178 179 183 187 187 190 198 210 205 204 205 204 204 204 207 206 204 202 197 195 198 195 192 193 196 199 203 189 202 195 197 206
178 205 251 247 209 209 188 215 201 212 219 211 184 159 171 170 176 183 184 189 192 195 195 201 210 215 215 213 212 212 212 215 214 212 212 204 202 202 200 207 205 214 212 211 209 199 207 204 211
302 255 265 293 305 198 201 214 207 193 228 234 175 162 165 173 180 187 194 194 196 202 202 204 203 207 217 223 221 219 219 221 219 221 225 212 211 208 199 196 201 221 221 229 221 209 203 212 211
207 275 305 290 302 232 226 216 189 187 3 153 156 156 160 168 186 204 215 214 210 215 217 217 213 204 208 213 220 223 227 228 225 224 226 223 221 218 209 207 219 240 242 238 231 222 213 205 210
298 298 297 247 252 336 193 106 139 110 153 142 157 160 176 175 173 211 220 237 232 236 230 225 224 222 218 227 230 230 229 234 231 228 230 233 236 232 226 234 242 252 258 239 232 223 219 217 216
314 327 341 233 218 199 138 38 66 153 148 148 161 178 182 181 173 192 216 231 243 230 242 231 223 225 223 226 227 224 226 239 233 238 236 236 238 240 236 248 256 254 258 240 229 223 219 212 213
356 34 2 15 233 232 101 215 228 162 154 154 163 181 191 203 180 186 210 226 233 235 224 237 231 220 233 241 237 232 236 240 235 238 233 234 240 247 245 249 247 244 250 235 230 227 229 226 223
346 250 229 328 304 72 52 144 222 176 157 156 174 187 206 216 197 198 200 220 223 232 236 226 234 232 234 240 244 240 244 242 244 246 243 238 242 243 241 241 242 239 237 236 231 235 231 223 227
226 285 308 259 277 340 91 59 78 182 165 165 186 202 225 225 213 218 202 199 247 237 232 237 235 243 247 249 249 249 250 252 253 251 249 248 246 245 240 242 231 226 233 236 235 235 227 223 220
331 310 288 280 246 334 118 165 192 195 177 175 194 212 228 200 170 191 194 214 266 231 223 231 234 240 244 248 253 251 257 262 263 262 257 254 255 253 255 241 236 233 233 236 235 231 225 223 219
232 278 285 294 217 169 84 181 222 189 217 178 190 210 207 204 180 177 170 209 196 210 220 224 234 237 246 249 255 263 267 268 264 263 259 260 255 255 256 246 235 233 236 237 230 228 230 228 222
242 203 244 235 357 19 13 96 253 258 271 192 207 227 208 204 203 190 201 201 192 188 202 226 224 244 245 250 260 271 276 275 277 277 269 259 254 255 252 240 235 234 236 237 232 224 228 227 223
282 215 229 240 75 283 62 267 255 216 189 232 228 212 207 220 229 214 205 211 198 202 163 219 220 240 250 251 261 270 278 282 284 279 275 266 260 257 253 250 243 237 235 238 235 227 227 228 222
235 284 232 218 125 102 295 85 289 65 242 246 253 218 220 232 246 221 211 216 199 200 198 211 220 235 249 259 266 273 285 291 291 282 277 270 262 256 253 248 239 234 232 235 237 227 223 226 226
265 180 43 57 80 25 275 134 276 188 239 212 235 237 218 231 239 236 226 223 217 206 201 195 208 236 259 266 275 308 310 316 311 297 284 285 283 252 250 243 228 230 229 227 232 229 224 225 225
91 51 351 359 13 222 249 43 235 210 248 169 224 236 241 235 255 229 227 207 207 183 180 196 205 228 231 244 312 321 347 346 342 341 344 322 295 254 241 220 220 222 231 227 225 225 223 224 230
196 160 156 193 188 247 280 252 256 281 337 300 178 103 156 280 256 226 194 203 207 184 189 187 204 207 178 174 331 26 33 32 28 40 31 8 353 338 239 217 222 226 230 219 221 223 223 225 227
199 207 183 104 49 74 265 289 330 97 50 76 81 87 92 333 239 193 188 196 199 187 183 195 196 161 157 164 119 80 45 36 35 37 36 29 24 32 18 258 215 222 223 216 218 221 222 229 231
157 159 84 12 130 226 282 260 228 131 169 154 113 115 112 238 265 192 177 183 189 186 181 179 161 148 153 161 130 127 61 39 30 28 35 32 33 38 49 51 223 212 204 207 214 217 221 229 229
31 233 45 116 129 163 190 260 210 173 174 183 167 156 159 203 220 196 190 183 189 185 171 160 155 178 167 166 152 138 82 27 2 15 22 23 29 41 54 61 64 204 195 199 201 209 217 230 235
172 214 145 127 232 130 156 266 40 170 180 175 177 177 187 188 207 206 189 169 187 184 171 168 166 172 174 164 149 168 7 36 28 16 17 30 39 48 52 61 73 95 149 173 185 206 215 227 220